Wetbulb
63.97 65.60 65.41 65.35 65.57 65.73 64.67 64.51 64.05 63.70 63.08 62.65 63.68 63.44 64.15 64.75 65.51 65.45 65.43 65.99 65.74 63.77 62.90 59.22 58.29 58.62 56.01 55.46 55.27 53.35 52.90 51.96
59.74 65.65 65.38 64.72 64.83 64.40 64.01 63.88 63.49 62.28 61.19 61.55 61.56 61.60 61.99 64.03 65.06 65.88 65.50 65.71 65.79 64.36 59.87 57.49 58.84 57.30 54.99 54.46 54.52 51.71 51.69 52.19
57.73 63.50 64.29 63.09 63.20 63.78 63.75 64.04 63.14 62.18 61.95 62.47 62.38 62.88 62.90 63.47 65.19 65.71 65.16 65.42 65.44 64.82 58.72 56.39 57.09 55.97 54.60 53.20 52.79 51.72 51.24 52.36
53.19 60.56 63.39 62.78 62.54 63.15 63.41 63.81 63.24 63.27 62.05 61.21 62.81 63.14 63.05 62.57 63.12 64.70 64.42 64.62 64.89 64.95 59.30 56.96 56.81 55.67 53.51 52.98 53.35 52.87 49.96 52.07
51.57 58.99 60.91 63.39 63.48 63.28 63.87 63.78 62.46 62.42 61.94 60.60 61.25 61.02 60.16 61.93 62.53 63.99 64.58 64.23 64.20 64.78 60.52 57.21 56.18 55.41 53.93 52.96 53.20 54.83 53.14 50.88
50.93 57.22 59.95 62.70 64.86 62.77 63.18 63.07 62.52 61.84 61.57 60.58 60.60 61.30 62.29 63.14 63.24 63.88 65.57 64.69 64.43 64.47 61.64 58.85 55.56 55.02 54.61 53.57 53.38 54.41 54.37 53.16
48.89 55.01 60.13 61.40 64.08 63.67 62.64 62.19 61.99 61.87 60.49 60.22 60.54 60.07 61.55 61.76 63.08 63.67 64.25 63.62 63.65 63.60 61.13 60.28 58.51 54.92 53.58 53.44 53.30 54.54 55.54 54.55
50.19 50.79 55.86 59.77 61.95 62.95 62.63 61.50 61.48 61.22 60.18 59.99 61.06 61.35 61.83 62.17 63.03 63.40 61.84 61.82 62.12 61.79 60.41 59.51 58.47 56.24 54.84 54.63 55.19 56.04 55.65 54.27
50.01 51.06 52.77 57.06 60.26 60.72 61.74 61.79 61.32 61.80 60.97 61.34 62.23 63.03 62.16 63.01 63.79 63.55 63.57 62.46 62.23 61.76 60.67 60.58 59.27 57.76 56.14 55.49 55.91 55.99 55.99 55.45
47.74 49.88 51.45 54.51 58.91 60.37 60.93 61.38 61.88 62.76 62.86 62.58 62.73 63.89 63.00 62.37 63.59 64.01 63.15 64.58 63.21 61.65 61.77 61.10 59.68 57.67 56.64 56.35 56.23 55.63 55.25 55.51
46.38 48.34 50.37 52.25 56.94 60.48 61.80 61.97 62.38 62.87 63.86 63.75 63.04 63.83 64.14 63.92 62.94 62.88 62.54 64.22 64.77 62.04 61.27 61.64 59.66 57.67 56.33 56.45 56.06 55.88 54.99 55.37
43.82 47.27 49.96 52.34 55.34 59.56 61.17 61.47 61.75 62.98 63.87 64.03 63.32 63.45 63.40 63.89 63.07 62.81 61.97 62.93 63.85 62.11 61.40 61.07 59.83 57.89 56.62 56.31 56.30 55.39 54.06 54.94
42.32 46.43 52.21 53.44 54.79 59.29 60.73 60.41 61.43 62.89 63.63 63.04 62.67 62.82 62.15 61.41 62.49 61.88 61.36 61.08 62.26 62.87 61.97 61.47 60.00 58.70 57.30 55.99 55.60 54.64 53.96 54.27
41.53 45.91 53.20 54.02 55.88 59.29 59.94 60.63 61.75 63.44 63.13 61.99 61.52 61.06 60.82 60.46 60.41 58.91 59.01 59.75 60.65 62.42 62.08 60.93 59.93 58.00 56.94 56.83 56.22 55.20 54.68 54.94
40.44 43.61 47.41 56.36 57.76 59.38 60.19 59.84 61.13 61.60 62.10 61.79 60.04 60.14 59.70 59.28 59.52 57.66 56.46 59.47 59.51 60.60 61.04 60.19 59.45 58.51 57.42 56.64 56.22 56.14 55.32 55.30
39.30 41.55 44.49 47.82 57.47 59.10 60.53 60.35 59.59 60.76 61.12 60.23 59.57 60.13 58.92 58.47 57.59 56.62 57.37 57.92 59.32 60.01 59.55 59.44 59.89 57.91 56.52 56.58 56.29 56.30 56.01 55.32
37.63 40.56 42.32 44.37 47.17 55.73 60.15 60.41 60.31 60.36 60.18 61.03 60.46 58.48 57.28 56.63 56.28 55.55 55.85 56.98 58.59 58.91 58.68 58.46 57.74 57.09 47.57 46.38 53.30 56.56 56.06 55.26
36.24 38.70 41.69 42.66 43.79 46.31 54.63 60.44 59.70 59.60 60.05 60.39 58.39 57.14 56.77 56.38 56.20 55.19 54.75 55.39 57.22 57.95 57.88 58.12 57.98 58.37 44.03 44.43 45.03 57.10 55.88 55.21
34.77 38.22 39.35 40.65 42.31 44.59 48.50 57.44 59.82 59.28 59.06 58.63 58.04 56.53 55.78 54.96 54.19 53.76 54.80 54.91 55.66 56.54 56.10 57.42 57.93 57.57 42.69 43.08 43.24 56.47 55.59 55.49
MSLP
1012.21 1012.55 1013.17 1013.86 1014.68 1015.48 1016.60 1017.30 1017.90 1019.01 1019.91 1020.73 1021.05 1021.60 1021.88 1022.18 1022.68 1023.34 1023.85 1024.26 1024.75 1025.44 1026.06 1027.04 1027.57 1027.75 1028.95 1029.59 1029.88 1030.58 1030.99 1031.44
1011.82 1012.06 1012.61 1013.54 1014.33 1015.12 1015.82 1016.77 1017.70 1018.22 1019.60 1020.15 1020.63 1020.70 1021.59 1021.90 1022.37 1023.01 1023.64 1024.02 1024.46 1025.06 1026.00 1026.87 1027.34 1027.90 1028.65 1029.70 1029.99 1030.52 1031.30 1031.86
1011.69 1011.82 1012.35 1012.92 1013.65 1014.45 1015.27 1016.14 1017.05 1017.56 1018.91 1019.56 1020.09 1020.23 1020.79 1021.34 1021.83 1022.52 1023.27 1023.67 1024.13 1024.64 1025.52 1026.43 1027.03 1027.85 1028.80 1029.60 1029.93 1030.33 1031.27 1031.49
1011.23 1011.67 1012.02 1012.75 1013.29 1013.87 1014.59 1015.27 1016.30 1017.27 1017.57 1019.26 1019.77 1020.19 1020.65 1021.15 1021.63 1022.11 1022.76 1023.13 1023.73 1024.15 1025.03 1025.79 1026.60 1027.35 1028.26 1028.91 1029.38 1029.54 1030.08 1031.10
1010.83 1011.09 1011.44 1011.97 1012.69 1013.41 1014.02 1015.01 1015.81 1016.76 1017.93 1018.28 1019.10 1019.24 1019.38 1020.09 1020.74 1021.28 1022.11 1022.70 1023.25 1023.68 1024.49 1025.24 1026.08 1026.84 1027.75 1028.40 1028.93 1028.95 1029.36 1029.95
1010.58 1010.60 1010.71 1010.98 1011.73 1012.46 1013.48 1014.19 1015.14 1015.72 1016.89 1018.07 1018.41 1018.54 1018.61 1019.28 1019.99 1020.69 1021.38 1022.10 1022.63 1023.28 1023.85 1024.66 1025.65 1026.34 1027.12 1027.70 1028.57 1028.86 1029.09 1029.24
1010.86 1010.65 1010.67 1010.70 1011.36 1012.11 1012.93 1013.53 1014.31 1015.30 1015.96 1016.93 1017.79 1017.62 1017.66 1018.08 1018.72 1019.70 1020.59 1021.45 1021.95 1022.58 1023.40 1023.96 1024.75 1025.74 1026.49 1027.16 1027.84 1028.32 1028.52 1028.99
1011.05 1010.74 1010.64 1010.66 1010.95 1011.56 1012.34 1012.99 1013.57 1014.63 1015.18 1015.18 1016.52 1016.93 1016.81 1016.84 1017.41 1018.21 1019.36 1020.58 1021.28 1021.84 1022.72 1023.47 1024.11 1024.99 1025.76 1026.44 1027.10 1027.59 1028.08 1028.54
1011.32 1011.11 1010.66 1010.41 1010.41 1010.90 1011.57 1012.09 1012.56 1013.39 1014.23 1014.15 1014.80 1015.65 1015.76 1016.04 1016.61 1017.51 1018.45 1019.22 1020.17 1020.86 1021.84 1022.59 1023.38 1024.29 1025.13 1025.85 1026.22 1026.72 1027.44 1028.11
1011.57 1011.07 1010.80 1010.17 1010.00 1010.13 1010.67 1011.24 1011.67 1012.06 1012.67 1013.38 1013.75 1014.43 1015.08 1015.42 1016.03 1016.60 1017.58 1018.15 1019.21 1020.11 1020.78 1021.63 1022.55 1023.54 1024.37 1025.12 1025.47 1026.19 1026.92 1027.62
1011.73 1010.89 1010.35 1009.92 1009.40 1009.55 1009.97 1010.28 1010.42 1010.65 1011.39 1012.26 1012.89 1013.49 1014.15 1014.79 1015.44 1015.95 1016.61 1017.24 1018.30 1019.40 1020.03 1020.75 1021.79 1022.67 1023.64 1024.40 1024.87 1025.51 1026.20 1026.78
1011.79 1010.48 1009.50 1009.16 1008.75 1008.58 1008.77 1009.28 1009.73 1010.17 1010.84 1011.43 1012.26 1012.82 1013.59 1014.21 1014.72 1015.19 1015.62 1016.33 1017.43 1018.39 1019.09 1020.06 1021.09 1021.90 1022.85 1023.62 1024.13 1024.70 1025.53 1026.06
1011.70 1010.32 1008.12 1007.41 1007.34 1007.33 1007.50 1008.18 1008.86 1009.31 1009.86 1010.68 1011.23 1012.02 1012.75 1013.59 1014.21 1014.68 1015.06 1015.79 1016.66 1017.42 1018.23 1019.24 1020.21 1021.00 1021.96 1022.70 1023.41 1023.97 1024.65 1025.27
1011.66 1009.85 1007.03 1006.20 1006.12 1006.35 1006.77 1007.27 1007.81 1008.40 1009.07 1009.91 1010.62 1011.35 1012.13 1012.76 1013.30 1014.11 1014.69 1015.13 1016.10 1016.84 1017.36 1018.28 1019.16 1020.07 1021.16 1021.91 1022.53 1023.12 1023.87 1024.45
1012.39 1010.37 1008.09 1005.91 1005.76 1005.81 1006.17 1006.79 1007.42 1008.00 1008.63 1009.26 1009.91 1010.63 1011.09 1011.89 1012.46 1012.93 1013.82 1014.39 1015.43 1016.27 1016.29 1017.22 1018.31 1019.29 1020.25 1021.06 1021.81 1022.49 1023.17 1023.71
1013.06 1011.09 1009.11 1007.68 1005.91 1005.74 1005.73 1006.26 1006.85 1007.47 1008.16 1008.85 1009.23 1009.95 1010.70 1011.63 1012.12 1012.50 1012.75 1013.73 1014.61 1015.34 1015.82 1016.69 1017.59 1018.65 1019.40 1020.12 1020.90 1021.64 1022.37 1022.98
1013.55 1011.98 1010.37 1008.98 1007.81 1006.46 1005.63 1005.70 1006.16 1006.86 1007.42 1007.98 1008.88 1009.63 1010.35 1011.01 1011.64 1011.81 1012.20 1012.99 1013.91 1014.83 1015.40 1015.86 1016.88 1017.74 1018.43 1019.17 1020.01 1020.81 1021.48 1022.05
1014.29 1012.69 1011.29 1010.02 1008.83 1007.93 1006.51 1005.50 1006.01 1006.56 1007.15 1007.61 1008.34 1008.90 1009.53 1010.13 1010.94 1010.99 1011.44 1012.29 1013.34 1014.10 1014.85 1015.15 1015.93 1016.89 1017.80 1018.61 1019.37 1020.10 1020.64 1021.06
1015.06 1013.45 1012.24 1011.09 1009.74 1008.42 1007.21 1005.98 1006.00 1006.18 1006.93 1007.38 1007.97 1008.20 1008.92 1009.79 1010.24 1010.25 1010.89 1011.58 1012.42 1013.41 1014.13 1014.50 1015.20 1016.17 1017.07 1018.09 1018.70 1019.54 1020.06 1020.37
Wind_Speed
16 17 20 20 19 18 14 12 14 11 8 8 9 10 9 9 8 8 11 9 12 10 9 12 9 10 10 8 12 10 10 11
11 17 18 17 17 17 19 17 15 12 9 10 10 11 10 10 9 11 11 9 12 12 9 10 10 11 10 10 11 14 10 10
7 14 13 17 18 19 20 18 17 14 9 9 8 10 10 10 11 8 12 11 12 11 12 11 11 10 12 12 13 12 9 11
9 13 15 14 18 19 19 21 19 16 14 8 7 9 7 10 11 10 8 12 12 11 13 12 12 11 11 13 12 14 11 11
12 13 16 17 18 17 19 18 17 16 17 11 12 12 12 10 11 11 9 11 14 12 14 13 13 10 12 11 10 12 13 13
13 14 17 20 19 17 16 19 20 21 17 16 13 14 11 10 11 14 14 12 14 13 15 15 13 10 12 14 13 11 12 11
9 12 14 16 16 14 15 20 21 20 20 22 21 20 16 14 16 13 10 9 10 13 14 15 15 12 14 13 13 15 13 11
9 9 12 15 16 16 14 20 21 22 25 27 25 22 19 21 18 15 14 10 8 13 15 14 13 14 13 13 14 15 14 13
11 11 12 15 18 17 17 20 23 24 24 26 21 20 14 15 17 14 12 12 12 15 15 15 17 15 13 13 13 12 13 12
17 15 12 14 17 21 20 20 23 25 28 21 21 19 18 16 18 16 13 15 12 16 17 16 18 15 16 16 11 14 13 13
18 17 15 14 17 18 22 24 24 25 25 21 19 19 17 16 14 17 17 16 17 16 17 17 17 16 15 16 13 15 15 12
20 21 21 17 17 19 21 23 24 20 20 22 19 17 15 15 15 17 16 17 18 18 18 17 18 18 17 16 15 15 17 15
20 23 23 17 18 19 21 21 21 22 20 18 18 16 13 14 15 17 16 17 18 19 19 18 17 18 16 17 17 14 16 15
21 22 14 12 16 18 19 18 20 18 19 19 16 16 17 16 17 14 15 15 16 18 19 18 17 16 17 17 17 16 15 15
19 18 17 10 13 17 18 18 16 15 17 18 19 18 19 18 17 16 15 16 16 17 18 17 17 17 17 17 16 15 15 15
18 18 16 17 4 10 15 14 16 16 16 17 18 17 15 15 16 15 15 16 16 18 16 15 15 15 13 17 16 16 16 15
20 18 18 15 14 8 11 13 14 14 17 18 15 13 14 16 16 15 15 16 16 16 17 17 16 12 16 18 17 15 16 16
19 19 16 15 13 13 9 12 12 12 15 16 13 14 14 14 14 15 15 16 15 17 16 17 17 17 18 19 18 14 14 13
18 16 16 15 14 14 13 5 14 15 14 12 12 12 12 11 13 13 14 14 16 16 16 17 15 14 19 20 19 14 12 14
Wind_Direction
217 198 191 183 183 179 172 169 161 158 154 170 176 177 177 172 164 172 174 164 156 152 154 154 150 153 148 149 145 140 134 129
229 206 191 187 186 177 175 172 166 149 166 175 184 180 181 179 178 168 176 171 164 159 144 151 161 157 151 148 145 142 140 136
217 204 190 184 181 185 179 179 171 165 169 178 189 188 187 189 187 168 178 179 174 164 155 161 159 149 150 152 159 150 145 170
233 203 188 184 188 186 188 182 178 170 154 159 178 181 175 192 196 190 181 181 180 169 165 164 162 157 163 164 167 169 159 180
245 212 201 189 192 194 191 186 174 163 162 159 185 199 194 195 199 199 180 177 182 184 169 166 165 164 165 173 176 179 166 176
239 224 210 202 196 188 192 178 175 165 171 186 203 206 199 186 196 197 195 184 183 190 175 168 168 172 172 171 175 180 186 177
276 259 229 212 201 187 187 183 179 181 175 184 210 215 202 187 188 191 189 187 181 185 182 177 173 173 170 176 180 185 185 190
317 286 239 222 202 192 187 187 183 183 186 186 207 221 206 198 189 188 173 178 186 179 179 180 177 177 179 179 180 187 189 193
320 308 281 236 213 201 194 191 189 191 199 198 202 211 203 199 189 185 186 180 183 176 181 183 184 180 178 184 183 187 190 199
316 305 289 264 224 210 199 198 200 195 201 199 200 200 200 198 193 186 185 181 184 179 180 182 184 179 184 185 188 191 194 201
317 305 288 270 241 214 206 203 205 199 200 197 199 201 199 196 186 192 184 181 181 182 178 183 184 182 185 189 190 194 196 200
318 306 292 267 245 217 208 204 204 202 196 196 200 200 198 196 193 195 188 177 180 182 178 181 184 184 188 191 193 191 201 202
318 306 285 248 226 211 207 206 203 203 200 198 194 191 189 197 203 197 181 184 184 184 179 182 186 187 187 191 194 193 199 203
322 316 286 232 213 203 206 202 202 195 192 194 191 190 193 196 194 189 184 180 188 189 180 183 185 184 187 195 197 195 201 204
322 321 337 256 207 204 197 200 198 192 189 186 186 192 194 198 196 181 180 185 187 195 183 183 185 186 190 192 195 197 201 206
331 335 342 344 221 196 205 187 196 195 190 191 197 196 195 197 197 190 180 185 192 196 183 186 184 187 189 188 192 195 200 203
336 341 341 345 349 312 188 189 180 191 199 200 196 184 185 194 193 189 178 186 190 191 194 185 183 193 182 180 183 193 199 200
336 342 342 341 341 337 310 181 172 181 202 202 191 186 186 193 202 189 184 184 186 194 197 187 191 195 173 178 179 190 192 196
340 340 341 345 349 345 334 285 181 182 198 194 198 185 192 190 194 190 190 184 188 194 195 193 190 193 169 175 177 190 196 198